[[{"header":{"parameterUnit":"m.s-1","parameterCategory":1,"la1":30.2991,"la2":30.254,"lo1":-89.0895,"lo2":-89.0444,"dy":0.0017,"dx":0.0017,"nx":28,"ny":28,"refTime":"2024-07-13T03:00:00:Z","depth":0,"parameterNumber":2,"parameterNumberName":"U-component_of_WINDS"},"data":[0,0,0,0,0,0,0,0,0,0,0,0,0,0,0,0,0,0,0,0,0,0,0,0,0,0,0,0,0,0,0,0,0,0,0,0,0,0,0,0,0,0,0,0,0,0,0,0,0,0,0,0,0,0,0,0,0,0,1.9567,1.9568,0,1.9625,1.9625,1.9626,1.9587,1.9585,1.9583,1.9581,1.9642,1.9645,1.9648,0,0,0,0,0,0,0,0,0,0,0,0,0,1.9422,1.9424,1.9567,1.9568,1.9568,1.9625,1.9625,1.9626,1.9587,1.9585,1.9583,1.9581,1.9641,1.9645,1.9649,0,0,0,0,0,0,0,0,0,0,0,0,0,1.9483,1.9425,1.9567,1.9555,1.9555,1.9625,1.9626,1.9626,1.9587,1.9585,1.9582,1.9579,1.964,1.9644,1.9649,1.9734,0,0,1.9664,1.9667,0,0,0,0,0,0,0,0,1.9479,1.9488,1.9556,1.9556,1.9556,1.9596,1.9596,1.9662,1.9588,1.9575,1.9581,1.9578,1.9629,1.9635,1.9651,1.9736,1.9739,1.9665,1.9668,1.967,1.9671,0,0,0,0,0,0,0,1.9475,1.9485,1.959,1.9557,1.9557,1.9547,1.9553,1.9609,1.9616,1.9576,1.9573,1.9581,1.9628,1.9647,1.9652,1.974,1.9665,1.9669,1.9672,1.9674,1.9894,1.9897,0,0,0,0,0,0,1.9472,1.9482,1.9588,1.9592,1.951,1.9552,1.9558,1.9586,1.9616,1.9618,1.9583,1.9579,1.964,1.9647,1.9654,1.9753,1.967,1.9675,1.9677,1.9891,1.9895,1.9898,0,0,0,0,0,0,1.9469,1.9482,1.9586,1.9536,1.9548,1.9557,1.9588,1.9588,1.9607,1.9621,1.9622,1.96,1.9638,1.9648,1.9713,1.9755,1.9677,1.9681,1.9888,1.9892,1.9896,1.9952,0,0,0,0,0,0,1.9465,1.9481,1.9513,1.9537,1.9551,1.9644,1.9591,1.9591,1.9615,1.961,1.9638,1.964,1.9636,1.9706,1.9718,1.976,1.9685,1.9884,1.989,1.9895,1.9947,1.9958,1.9968,0,0,0,0,0,1.946,1.9528,1.9515,1.9528,1.9592,1.9647,1.9655,1.9649,1.9619,1.9651,1.9659,1.9639,1.9748,1.9713,1.9727,1.9771,1.9881,1.9888,1.9894,1.9942,1.9956,1.9967,0,0,0,0,0,0,1.951,1.9531,1.9517,1.9595,1.9619,1.964,1.9681,1.9664,1.9698,1.9692,1.9684,1.9691,1.976,1.9772,1.9732,1.9852,1.981,1.9819,1.9842,1.9855,1.9865,1.986,1.9689,0,0,0,0,0,1.953,1.9572,1.9588,1.9655,1.9668,1.9672,1.9696,1.9689,1.9714,1.9725,1.9738,1.9763,1.9803,1.983,1.9868,1.9948,1.9953,1.9985,1.9995,2.0004,2.0012,2.0053,2.0067,1.9919,1.9919,1.9919,0,0,1.9572,1.9588,1.9616,1.9665,1.9684,1.9727,1.9681,1.973,1.9762,1.9732,1.9794,1.9805,1.9833,1.9906,1.9939,1.9918,2.0053,2.0012,2.0019,2.0022,2.0061,2.0075,2.0088,1.9924,1.9923,1.9922,0,0,1.967,1.9687,1.9744,1.9762,1.9789,1.9791,1.9805,1.9828,1.9833,1.9896,1.9873,1.9911,1.9981,2.0,2.002,2.0122,2.0104,2.0135,2.0189,2.023,2.0241,2.0251,2.0286,2.0299,2.0143,2.0143,2.0143,0,1.9719,1.9783,1.9775,1.9824,1.9846,1.982,1.9876,1.9895,1.9934,1.9949,1.9925,2.0009,2.0027,2.0103,2.0127,2.0144,2.0158,2.0132,2.024,2.025,2.026,2.0293,2.0306,2.0147,2.0146,2.0146,2.0146,0,1.9841,1.9886,1.9928,1.9964,1.9991,2.0044,2.0043,2.0071,2.0061,2.0065,2.0128,2.0147,2.0187,2.0204,2.0197,2.0279,2.0265,2.0241,2.0198,2.0277,2.0308,2.0321,2.0152,2.015,2.0149,2.0149,0,0,1.9974,2.0002,2.0018,2.0033,2.006,2.0095,2.0145,2.0183,2.0206,2.0234,2.0275,2.0333,2.031,2.0332,2.0326,2.0361,2.0439,2.0332,2.0333,2.035,2.0528,2.0545,2.056,2.0426,2.0429,2.0431,2.0525,0,2.0072,2.016,2.0153,2.0236,2.0276,2.0251,2.0294,2.0315,2.032,2.0355,2.036,2.0401,2.0368,2.0381,2.0415,2.0422,2.0474,2.0415,2.0464,2.0466,2.0457,2.0577,2.0596,2.0684,2.0538,2.054,2.0541,0,2.0199,2.0228,2.0315,2.0333,2.035,2.039,2.0422,2.0456,2.0479,2.048,2.0503,2.049,2.054,2.0496,2.0564,2.0524,2.0544,2.055,2.0553,2.0557,2.0508,2.0583,2.0713,2.0725,2.0561,2.0559,2.0558,0,2.0285,2.0346,2.0405,2.0419,2.0443,2.0471,2.0482,2.0502,2.0524,2.0553,2.0567,2.0602,2.0621,2.0647,2.0643,2.0612,2.0712,2.0669,2.0714,2.0714,2.0736,2.0734,2.0869,2.075,2.075,2.075,2.0749,0,2.0395,2.0449,2.0444,2.048,2.0539,2.053,2.0588,2.0596,2.0613,2.065,2.0631,2.0666,2.0659,2.0694,2.0691,2.0747,2.0756,2.0757,2.0756,2.0759,2.0758,2.0771,2.0764,2.0753,2.0752,2.0752,2.0751,0,2.0501,2.05,2.0563,2.0579,2.0584,2.0627,2.064,2.0674,2.0676,2.0723,2.0733,2.0737,2.0776,2.0775,2.0821,2.0819,2.0887,2.0879,2.0879,2.0877,2.0921,2.0916,2.1068,2.1087,2.0957,2.0958,2.0959,0,2.0571,2.0611,2.0631,2.0654,2.0666,2.0704,2.0726,2.0718,2.0741,2.0768,2.0799,2.0836,2.0865,2.0929,2.0936,2.097,2.0962,2.1013,2.0967,2.0968,2.0961,2.0958,2.0961,2.1022,2.1023,2.1024,2.1025,0,2.0695,2.0692,2.0724,2.0756,2.0782,2.0807,2.083,2.0849,2.0844,2.0871,2.091,2.0933,2.0978,2.1015,2.1047,2.1058,2.104,2.104,2.1051,2.1054,2.1052,2.1052,2.0902,2.1036,2.1035,2.1034,2.1034,2.1033,2.0784,2.0818,2.0836,2.0872,2.0888,2.0909,2.094,2.0946,2.0978,2.1013,2.1007,2.105,2.107,2.111,2.1124,2.1158,2.114,2.1158,2.1162,2.1166,2.117,2.1047,2.1164,2.1164,2.1163,2.1163,2.1163,0,2.0905,2.0915,2.0948,2.098,2.1007,2.0987,2.1011,2.1035,2.1074,2.1093,2.1121,2.1166,2.12,2.1209,2.1242,2.1267,2.126,2.1276,2.1274,2.1276,2.1185,2.1171,2.1282,2.1282,2.1282,2.1281,2.1281,2.1281,2.0972,2.1027,2.1025,2.1087,2.1097,2.1139,2.1153,2.1172,2.1187,2.1237,2.1265,2.127,2.1284,2.1318,2.1349,2.135,2.1363,2.1382,2.138,2.1295,2.1283,2.1272,2.1258,2.1385,2.1385,2.1469,2.1469,2.147]},{"header":{"parameterUnit":"m.s-1","parameterCategory":1,"la1":30.2991,"la2":30.254,"lo1":-89.0895,"lo2":-89.0444,"dy":0.0017,"dx":0.0017,"nx":28,"ny":28,"refTime":"2024-07-13T03:00:00:Z","depth":0,"parameterNumber":3,"parameterNumberName":"V-component_of_WINDS"},"data":[0,0,0,0,0,0,0,0,0,0,0,0,0,0,0,0,0,0,0,0,0,0,0,0,0,0,0,0,0,0,0,0,0,0,0,0,0,0,0,0,0,0,0,0,0,0,0,0,0,0,0,0,0,0,0,0,0,0,2.9633,2.9632,0,2.9627,2.9627,2.9627,2.9558,2.9557,2.9555,2.9553,2.9548,2.9549,2.955,0,0,0,0,0,0,0,0,0,0,0,0,0,2.9583,2.9585,2.9633,2.9632,2.9632,2.9627,2.9627,2.9627,2.9559,2.9556,2.9554,2.9552,2.9547,2.9549,2.9551,0,0,0,0,0,0,0,0,0,0,0,0,0,2.9594,2.9585,2.9633,2.9598,2.9595,2.9627,2.9627,2.9627,2.9559,2.9556,2.9554,2.9551,2.9547,2.9549,2.9551,2.9616,0,0,2.9557,2.9558,0,0,0,0,0,0,0,0,2.9593,2.9596,2.9603,2.96,2.9597,2.9591,2.9607,2.9623,2.956,2.9573,2.9553,2.955,2.9564,2.9565,2.9569,2.9616,2.9616,2.9558,2.9559,2.956,2.9561,0,0,0,0,0,0,0,2.9593,2.9596,2.963,2.9603,2.9599,2.9582,2.9581,2.961,2.9583,2.9571,2.9566,2.9566,2.9562,2.9567,2.9569,2.9615,2.9558,2.956,2.9561,2.9562,2.9713,2.9715,0,0,0,0,0,0,2.9597,2.9596,2.963,2.963,2.9589,2.9585,2.9583,2.9595,2.9582,2.9578,2.9569,2.9563,2.9565,2.9566,2.9568,2.9642,2.956,2.9562,2.9563,2.971,2.9713,2.9716,0,0,0,0,0,0,2.9596,2.9601,2.9631,2.9611,2.9614,2.9589,2.9602,2.9596,2.9602,2.958,2.9575,2.9579,2.9563,2.9565,2.9604,2.9641,2.9563,2.9565,2.9707,2.9711,2.9715,2.9791,0,0,0,0,0,0,2.9595,2.9601,2.9626,2.9612,2.9615,2.9667,2.9605,2.9598,2.9606,2.9599,2.9589,2.9585,2.9561,2.9601,2.9606,2.9642,2.9567,2.9703,2.9709,2.9713,2.9785,2.9797,2.9807,0,0,0,0,0,2.9594,2.9648,2.9627,2.9632,2.9646,2.967,2.9671,2.9642,2.9609,2.9633,2.9619,2.9585,2.9636,2.9606,2.9611,2.9648,2.9701,2.9707,2.9713,2.978,2.9795,2.9807,0,0,0,0,0,0,2.9667,2.9646,2.9623,2.9675,2.9674,2.9658,2.9688,2.9659,2.9669,2.9662,2.9625,2.9624,2.9668,2.9662,2.9629,2.9709,2.9662,2.967,2.9711,2.9725,2.9736,2.9736,2.9568,0,0,0,0,0,2.9689,2.9711,2.9691,2.9739,2.9739,2.9714,2.9723,2.9701,2.9699,2.9699,2.9688,2.9687,2.9703,2.9714,2.9727,2.9784,2.978,2.9812,2.9823,2.9832,2.9839,2.9866,2.988,2.9736,2.9736,2.9736,0,0,2.9736,2.9727,2.9742,2.9753,2.975,2.9772,2.9714,2.9741,2.9756,2.9703,2.9738,2.973,2.9727,2.9775,2.9795,2.9771,2.9878,2.984,2.9848,2.9849,2.9874,2.9888,2.99,2.974,2.9739,2.9739,0,0,2.9831,2.9827,2.9865,2.9863,2.9859,2.9841,2.985,2.9838,2.983,2.9865,2.9825,2.9843,2.9871,2.987,2.9873,2.9966,2.9934,2.9972,3.003,3.0057,3.0068,3.0078,3.0109,3.0121,2.9978,2.9978,2.9979,0,2.9889,2.992,2.9888,2.9916,2.9921,2.9874,2.9911,2.9911,2.9912,2.9916,2.9889,2.9922,2.9917,2.9962,2.9985,2.999,2.9998,2.9972,3.0069,3.0079,3.0087,3.0117,3.0129,2.9983,2.9982,2.9982,2.9981,0,2.9991,3.0013,3.0044,3.0045,3.0054,3.0087,3.0059,3.0072,3.0049,3.0034,3.0069,3.0061,3.0071,3.008,3.0058,3.0122,3.0107,3.0075,3.0027,3.0106,3.0133,3.0144,2.9989,2.9988,2.9986,2.9985,0,0,3.0133,3.0114,3.0126,3.0124,3.0116,3.0132,3.0162,3.0171,3.0182,3.0184,3.0208,3.0232,3.0202,3.0205,3.0183,3.0207,3.0278,3.0171,3.0171,3.019,3.0346,3.0369,3.0383,3.0258,3.026,3.0261,3.0346,0,3.0223,3.0273,3.0244,3.0298,3.0317,3.0271,3.0297,3.0294,3.028,3.0294,3.028,3.0296,3.0257,3.0258,3.028,3.0265,3.0309,3.0259,3.0278,3.0279,3.0279,3.0397,3.0422,3.0502,3.0356,3.0358,3.0359,0,3.0335,3.034,3.0395,3.0381,3.0388,3.0412,3.0416,3.0431,3.0426,3.0414,3.0418,3.0389,3.0416,3.037,3.0406,3.0373,3.0379,3.0373,3.0375,3.0375,3.0323,3.0398,3.0527,3.0538,3.0376,3.0375,3.0374,0,3.043,3.0451,3.0486,3.0487,3.0472,3.0489,3.0483,3.0476,3.0483,3.0487,3.0491,3.0499,3.0503,3.051,3.0483,3.0452,3.0523,3.0474,3.0513,3.0514,3.0529,3.0528,3.0659,3.0536,3.0536,3.0536,3.0535,0,3.0533,3.0568,3.0529,3.055,3.0588,3.0554,3.0593,3.0582,3.0576,3.0594,3.0555,3.0573,3.0538,3.0552,3.0531,3.0564,3.0567,3.0557,3.0551,3.056,3.0561,3.0563,3.0556,3.0539,3.0538,3.0537,3.0537,0,3.0645,3.0621,3.0656,3.0637,3.0634,3.0662,3.0646,3.0665,3.0649,3.0672,3.0676,3.065,3.0664,3.0639,3.0651,3.0637,3.0682,3.0668,3.0683,3.0678,3.0718,3.0714,3.0853,3.0868,3.0737,3.0738,3.074,0,3.0712,3.0738,3.0722,3.073,3.0727,3.0742,3.0748,3.0716,3.0724,3.0719,3.0738,3.0749,3.0756,3.0782,3.0764,3.0772,3.0757,3.0805,3.0758,3.0765,3.0756,3.0754,3.0755,3.0815,3.0816,3.0818,3.0819,0,3.0832,3.0818,3.0827,3.0833,3.0841,3.0844,3.0844,3.0853,3.0819,3.0829,3.0843,3.0849,3.086,3.0871,3.0874,3.0868,3.0838,3.0834,3.0843,3.0851,3.0858,3.0853,3.0708,3.083,3.0829,3.0828,3.0828,3.0827,3.0922,3.0942,3.0933,3.0945,3.0941,3.0941,3.0957,3.0942,3.0953,3.0959,3.0939,3.0957,3.095,3.0952,3.0949,3.0962,3.0941,3.0955,3.0958,3.0961,3.0967,3.0857,3.0963,3.0963,3.0963,3.0962,3.0962,0,3.1038,3.103,3.1041,3.1041,3.105,3.102,3.1018,3.1027,3.1043,3.1039,3.1046,3.1062,3.1072,3.1054,3.1062,3.1075,3.1061,3.1078,3.1076,3.1075,3.0986,3.0977,3.1089,3.1089,3.1089,3.1089,3.1089,3.1089,3.1099,3.113,3.1115,3.1144,3.1135,3.1152,3.1153,3.1153,3.1149,3.1167,3.1175,3.1163,3.1154,3.1159,3.1167,3.1162,3.1165,3.1187,3.1177,3.1094,3.1081,3.1069,3.106,3.1189,3.1189,3.1264,3.1264,3.1265]}]]